Weather History for KMSO - March, 2013

Change the Weather History Date:

Sunday, March 17, 2013

  Actual Average Record
Temperature  
Mean Temperature 35 °F 39 °F  
Max Temperature 41 °F 51 °F 71 °F (1972)
Min Temperature 28 °F 28 °F 1 °F (1965)
Degree Days  
Heating Degree Days 30 26  
Month to date heating degree days 451 482  
Since 1 July heating degree days 5442 5851  
Cooling Degree Days 0 0  
Month to date cooling degree days 0 0  
Year to date cooling degree days 0 0  
Moisture  
Dew Point 22 °F    
Average Humidity 66    
Maximum Humidity 92    
Minimum Humidity 40    
Precipitation  
Precipitation 0.01 in 0.03 in 1.00 in (1901)
Month to date precipitation 0.28 0.51  
Year to date precipitation 1.74 2.06  
Snow  
Snow T in - - ()
Month to date snowfall 2.4  
Year to date snowfall 18.0  
Since 1 July snowfall 39.1  
Snow Depth 0.00 in    
Sea Level Pressure  
Sea Level Pressure 29.86 in    
Wind  
Wind Speed 12 mph (West)    
Max Wind Speed 25 mph    
Max Gust Speed 33 mph    
Visibility 10 miles    
Events      
T = Trace of Precipitation, MM = Missing Value Source: NWS Daily Summary

Daily Weather History Graph

Daily Weather History Graph

Search for Another Location

Airport or City:

Trip Planner

Search our weather history database for the weather conditions in past years. The results will help you decide how hot, cold, wet, or windy it might be!

Date:

Astronomy

Mar. 17, 2013 Rise Set
Actual Time 7:44 AM MDT 7:45 PM MDT
Civil Twilight 7:14 AM MDT 8:15 PM MDT
Nautical Twilight 6:38 AM MDT 8:51 PM MDT
Astronomical Twilight 6:02 AM MDT 9:27 PM MDT
Moon 10:39 AM MDT (3/17) 1:17 AM MDT (3/17)
Length of Visible Light 13h 01m
Length of Day
12h 00m
Waxing Crescent, 32% of the Moon is Illuminated
Mar 17
Waxing Crescent
Mar 19
First Quarter
Mar 27
Full
Apr 2
Last Quarter
Apr 10
New

Hourly Weather History & Observations

Time (MDT) Temp. Windchill Dew Point Humidity Pressure Visibility Wind Dir Wind Speed Gust Speed Precip Events Conditions
12:53 AM 37.9 °F - 34.0 °F 86% 29.69 in 10.0 mi Calm Calm - 0.00 in   Mostly Cloudy
1:53 AM 37.9 °F 32.7 °F 33.1 °F 83% 29.66 in 10.0 mi South 6.9 mph - N/A   Mostly Cloudy
2:53 AM 37.9 °F 30.5 °F 35.1 °F 89% 29.65 in 10.0 mi South 11.5 mph - N/A   Overcast
3:11 AM 37.4 °F 26.1 °F 33.8 °F 87% 29.65 in 5.0 mi WSW 24.2 mph 31.1 mph N/A   Overcast
3:40 AM 37.4 °F 29.3 °F 26.6 °F 65% 29.68 in 10.0 mi NW 12.7 mph 33.4 mph 0.01 in   Overcast
3:53 AM 36.0 °F 25.3 °F 25.0 °F 64% 29.71 in 10.0 mi WNW 19.6 mph 29.9 mph 0.01 in   Overcast
4:53 AM 35.1 °F 32.2 °F 21.9 °F 59% 29.75 in 10.0 mi NNE 3.5 mph - N/A   Mostly Cloudy
5:53 AM 32.0 °F 24.2 °F 23.0 °F 69% 29.77 in 10.0 mi West 9.2 mph - N/A   Mostly Cloudy
6:53 AM 30.9 °F 26.2 °F 23.0 °F 72% 29.80 in 10.0 mi West 4.6 mph - N/A   Mostly Cloudy
7:53 AM 30.0 °F 23.2 °F 19.9 °F 66% 29.80 in 10.0 mi North 6.9 mph - N/A   Partly Cloudy
8:53 AM 30.0 °F 26.5 °F 21.9 °F 72% 29.83 in 10.0 mi ENE 3.5 mph - N/A   Partly Cloudy
9:53 AM 34.0 °F 28.8 °F 19.0 °F 54% 29.83 in 10.0 mi NNW 5.8 mph 19.6 mph N/A   Mostly Cloudy
10:53 AM 34.0 °F 28.0 °F 21.0 °F 59% 29.84 in 10.0 mi WNW 6.9 mph - N/A   Overcast
11:53 AM 36.0 °F 26.7 °F 17.1 °F 46% 29.85 in 10.0 mi WNW 15.0 mph 28.8 mph N/A   Overcast
12:53 PM 36.0 °F 26.7 °F 17.1 °F 46% 29.88 in 10.0 mi West 15.0 mph 25.3 mph N/A   Overcast
1:53 PM 37.0 °F 26.7 °F 18.0 °F 46% 29.88 in 10.0 mi West 19.6 mph 26.5 mph N/A   Overcast
2:53 PM 37.9 °F 26.6 °F 19.9 °F 48% 29.90 in 10.0 mi WNW 25.3 mph 29.9 mph N/A   Overcast
3:53 PM 39.0 °F 29.9 °F 19.0 °F 45% 29.91 in 9.0 mi WNW 17.3 mph - 0.00 in   Overcast
4:53 PM 39.0 °F 31.4 °F 18.0 °F 43% 29.92 in 10.0 mi WSW 12.7 mph 24.2 mph N/A   Overcast
5:53 PM 39.0 °F 29.6 °F 18.0 °F 43% 29.94 in 10.0 mi West 18.4 mph 25.3 mph N/A   Overcast
6:53 PM 37.9 °F 29.6 °F 16.0 °F 41% 29.98 in 10.0 mi West 13.8 mph 25.3 mph N/A   Overcast
7:53 PM 33.1 °F 22.6 °F 23.0 °F 66% 30.01 in 10.0 mi WSW 16.1 mph 25.3 mph N/A   Overcast
8:53 PM 32.0 °F 26.4 °F 21.0 °F 64% 30.04 in 10.0 mi Variable 5.8 mph - N/A   Partly Cloudy
9:53 PM 30.9 °F - 21.0 °F 67% 30.04 in 10.0 mi Calm Calm - N/A   Mostly Cloudy
10:53 PM 30.0 °F 20.5 °F 23.0 °F 75% 30.05 in 10.0 mi South 11.5 mph - N/A   Overcast
11:53 PM 30.0 °F 18.3 °F 23.0 °F 75% 30.05 in 10.0 mi South 17.3 mph 20.7 mph N/A   Mostly Cloudy